This is the latest recevied weather packets stored in our database for station/object DM2KB-13. If no packets are shown the sender has not sent any weather packets the latest 10 day(s).
| Time | Temp. | Humidity | Pressure | Rain* | Wind** | Luminosity | Snow |
|---|---|---|---|---|---|---|---|
| 1777966188 | 11.67° C | 98% | 1009.1 hPa | 3.3 mm | - | 65 W/m² | - |
| 1777965887 | 11.67° C | 98% | 1009.1 hPa | 3.81 mm | - | 53 W/m² | - |
| 1777965587 | 12.22° C | 98% | 1009.1 hPa | 4.32 mm | - | 54 W/m² | - |
| 1777965287 | 12.22° C | 98% | 1009.1 hPa | 5.33 mm | - | 33 W/m² | - |
| 1777964986 | 11.67° C | 98% | 1009.1 hPa | 6.1 mm | - | 40 W/m² | - |
| 1777964686 | 12.22° C | 98% | 1009.1 hPa | 6.1 mm | - | 40 W/m² | - |
| 1777964386 | 11.67° C | 97% | 1009.1 hPa | 6.1 mm | - | 42 W/m² | - |
| 1777964086 | 12.22° C | 98% | 1009.1 hPa | 5.84 mm | - | 28 W/m² | - |
| 1777963785 | 12.22° C | 98% | 1009.1 hPa | 5.59 mm | - | 18 W/m² | - |
| 1777963485 | 12.22° C | 98% | 1009.1 hPa | 5.59 mm | - | 14 W/m² | - |
| 1777963185 | 12.22° C | 97% | 1009.2 hPa | 4.83 mm | - | 12 W/m² | - |
| 1777962884 | 12.22° C | 98% | 1009.1 hPa | 4.83 mm | - | 12 W/m² | - |
| 1777962584 | 12.22° C | 98% | 1009.2 hPa | 4.57 mm | - | 12 W/m² | - |
| 1777962284 | 12.22° C | 97% | 1009.1 hPa | 4.06 mm | - | 14 W/m² | - |
| 1777961984 | 12.78° C | 98% | 1009.1 hPa | 3.56 mm | - | 11 W/m² | - |
| 1777961683 | 12.78° C | 98% | 1009.1 hPa | 2.54 mm | - | 11 W/m² | - |
| 1777961383 | 12.78° C | 98% | 1009.1 hPa | 1.78 mm | - | 14 W/m² | - |
| 1777961083 | 12.78° C | 98% | 1009.1 hPa | 1.52 mm | - | 16 W/m² | - |
| 1777960782 | 13.33° C | 98% | 1009.1 hPa | 1.27 mm | - | 18 W/m² | - |
| 1777960482 | 13.33° C | 98% | 1009.1 hPa | 1.52 mm | - | 14 W/m² | - |
| 1777960182 | 13.33° C | 98% | 1009 hPa | 1.27 mm | - | 11 W/m² | - |
| 1777959882 | 13.33° C | 98% | 1009 hPa | 0.76 mm | - | 12 W/m² | - |
| 1777959581 | 13.33° C | 98% | 1009 hPa | 0.76 mm | - | 12 W/m² | - |
| 1777959281 | 13.33° C | 98% | 1009.1 hPa | 0.51 mm | - | 16 W/m² | - |
| 1777958981 | 13.33° C | 98% | 1009 hPa | 0.51 mm | - | 18 W/m² | - |
* Rain latest hour (hover to see other rain measurements)
** Current wind speed in m/s (hover to see current wind gust speed)